Year,Month,Day,Hour,Minute,Value (Times are PST for temperature in C)
2016,08,24,00,00,15.00
2016,08,24,00,01,14.90
2016,08,24,00,02,14.90
2016,08,24,00,03,14.90
2016,08,24,00,04,14.90
2016,08,24,00,05,14.90
2016,08,24,00,06,14.90
2016,08,24,00,07,14.90
2016,08,24,00,08,14.90
2016,08,24,00,09,14.90
2016,08,24,00,10,14.90
2016,08,24,00,11,14.90
2016,08,24,00,12,14.90
2016,08,24,00,13,14.90
2016,08,24,00,14,14.90
2016,08,24,00,15,14.80
2016,08,24,00,16,14.80
2016,08,24,00,17,14.80
2016,08,24,00,18,14.80
2016,08,24,00,19,14.80
2016,08,24,00,20,14.80
2016,08,24,00,21,14.80
2016,08,24,00,22,14.80
2016,08,24,00,23,14.80
2016,08,24,00,24,14.70
2016,08,24,00,25,14.70
2016,08,24,00,26,14.70
2016,08,24,00,27,14.70
2016,08,24,00,28,14.70
2016,08,24,00,29,14.70
2016,08,24,00,30,14.70
2016,08,24,00,31,14.70
2016,08,24,00,32,14.70
2016,08,24,00,33,14.70
2016,08,24,00,34,14.60
2016,08,24,00,35,14.60
2016,08,24,00,36,14.60
2016,08,24,00,37,14.50
2016,08,24,00,38,14.50
2016,08,24,00,39,14.50
2016,08,24,00,40,14.50
2016,08,24,00,41,14.50
2016,08,24,00,42,14.50
2016,08,24,00,43,14.40
2016,08,24,00,44,14.40
2016,08,24,00,45,14.40
2016,08,24,00,46,14.40
2016,08,24,00,47,14.40
2016,08,24,00,48,14.40
2016,08,24,00,49,14.40
2016,08,24,00,50,14.30
2016,08,24,00,51,14.30
2016,08,24,00,52,14.30
2016,08,24,00,53,14.30
2016,08,24,00,54,14.30
2016,08,24,00,55,14.30
2016,08,24,00,56,14.30
2016,08,24,00,57,14.40
2016,08,24,00,58,14.40
2016,08,24,00,59,14.40
2016,08,24,01,00,14.30
2016,08,24,01,01,14.30
2016,08,24,01,02,14.30
2016,08,24,01,03,14.20
2016,08,24,01,04,14.20
2016,08,24,01,05,14.20
2016,08,24,01,06,14.20
2016,08,24,01,07,14.20
2016,08,24,01,08,14.20
2016,08,24,01,09,14.20
2016,08,24,01,10,14.20
2016,08,24,01,11,14.10
2016,08,24,01,12,14.10
2016,08,24,01,13,14.10
2016,08,24,01,14,14.10
2016,08,24,01,15,14.10
2016,08,24,01,16,14.00
2016,08,24,01,17,14.00
2016,08,24,01,18,14.00
2016,08,24,01,19,14.00
2016,08,24,01,20,13.90
2016,08,24,01,21,13.90
2016,08,24,01,22,13.90
2016,08,24,01,23,13.90
2016,08,24,01,24,13.80
2016,08,24,01,25,13.80
2016,08,24,01,26,13.80
2016,08,24,01,27,13.70
2016,08,24,01,28,13.70
2016,08,24,01,29,13.70
2016,08,24,01,30,13.70
2016,08,24,01,31,13.70
2016,08,24,01,32,13.70
2016,08,24,01,33,13.70
2016,08,24,01,34,13.60
2016,08,24,01,35,13.60
2016,08,24,01,36,13.60
2016,08,24,01,37,13.60
2016,08,24,01,38,13.60
2016,08,24,01,39,13.60
2016,08,24,01,40,13.50
2016,08,24,01,41,13.50
2016,08,24,01,42,13.50
2016,08,24,01,43,13.50
2016,08,24,01,44,13.50
2016,08,24,01,45,13.50
2016,08,24,01,46,13.50
2016,08,24,01,47,13.50
2016,08,24,01,48,13.50
2016,08,24,01,49,13.50
2016,08,24,01,50,13.50
2016,08,24,01,51,13.50
2016,08,24,01,52,13.50
2016,08,24,01,53,13.50
2016,08,24,01,54,13.50
2016,08,24,01,55,13.50
2016,08,24,01,56,13.40
2016,08,24,01,57,13.40
2016,08,24,01,58,13.40
2016,08,24,01,59,13.40
2016,08,24,02,00,13.40
2016,08,24,02,01,13.40
2016,08,24,02,02,13.40
2016,08,24,02,03,13.40
2016,08,24,02,04,13.40
2016,08,24,02,05,13.40
2016,08,24,02,06,13.40
2016,08,24,02,07,13.40
2016,08,24,02,08,13.40
2016,08,24,02,09,13.40
2016,08,24,02,10,13.40
2016,08,24,02,11,13.40
2016,08,24,02,12,13.30
2016,08,24,02,13,13.30
2016,08,24,02,14,13.30
2016,08,24,02,15,13.30
2016,08,24,02,16,13.30
2016,08,24,02,17,13.30
2016,08,24,02,18,13.30
2016,08,24,02,19,13.30
2016,08,24,02,20,13.30
2016,08,24,02,21,13.30
2016,08,24,02,22,13.30
2016,08,24,02,23,13.30
2016,08,24,02,24,13.30
2016,08,24,02,25,13.30
2016,08,24,02,26,13.30
2016,08,24,02,27,13.30
2016,08,24,02,28,13.30
2016,08,24,02,29,13.30
2016,08,24,02,30,13.30
2016,08,24,02,31,13.20
2016,08,24,02,32,13.20
2016,08,24,02,33,13.20
2016,08,24,02,34,13.20
2016,08,24,02,35,13.20
2016,08,24,02,36,13.20
2016,08,24,02,37,13.20
2016,08,24,02,38,13.20
2016,08,24,02,39,13.20
2016,08,24,02,40,13.20
2016,08,24,02,41,13.20
2016,08,24,02,42,13.20
2016,08,24,02,43,13.20
2016,08,24,02,44,13.20
2016,08,24,02,45,13.20
2016,08,24,02,46,13.10
2016,08,24,02,47,13.10
2016,08,24,02,48,13.10
2016,08,24,02,49,13.10
2016,08,24,02,50,13.10
2016,08,24,02,51,13.10
2016,08,24,02,52,13.10
2016,08,24,02,53,13.10
2016,08,24,02,54,13.10
2016,08,24,02,55,13.10
2016,08,24,02,56,13.10
2016,08,24,02,57,13.10
2016,08,24,02,58,13.20
2016,08,24,02,59,13.20
2016,08,24,03,00,13.20
2016,08,24,03,01,13.20
2016,08,24,03,02,13.30
2016,08,24,03,03,13.30
2016,08,24,03,04,13.30
2016,08,24,03,05,13.30
2016,08,24,03,06,13.30
2016,08,24,03,07,13.30
2016,08,24,03,08,13.30
2016,08,24,03,09,13.30
2016,08,24,03,10,13.30
2016,08,24,03,11,13.30
2016,08,24,03,12,13.30
2016,08,24,03,13,13.20
2016,08,24,03,14,13.20
2016,08,24,03,15,13.20
2016,08,24,03,16,13.20
2016,08,24,03,17,13.10
2016,08,24,03,18,13.10
2016,08,24,03,19,13.10
2016,08,24,03,20,13.00
2016,08,24,03,21,13.00
2016,08,24,03,22,13.00
2016,08,24,03,23,12.90
2016,08,24,03,24,12.90
2016,08,24,03,25,12.90
2016,08,24,03,26,12.90
2016,08,24,03,27,12.90
2016,08,24,03,28,12.90
2016,08,24,03,29,12.80
2016,08,24,03,30,12.80
2016,08,24,03,31,12.80
2016,08,24,03,32,12.80
2016,08,24,03,33,12.80
2016,08,24,03,34,12.80
2016,08,24,03,35,12.80
2016,08,24,03,36,12.80
2016,08,24,03,37,12.80
2016,08,24,03,38,12.80
2016,08,24,03,39,12.80
2016,08,24,03,40,12.80
2016,08,24,03,41,12.80
2016,08,24,03,42,12.70
2016,08,24,03,43,12.70
2016,08,24,03,44,12.70
2016,08,24,03,45,12.70
2016,08,24,03,46,12.70
2016,08,24,03,47,12.70
2016,08,24,03,48,12.70
2016,08,24,03,49,12.70
2016,08,24,03,50,12.70
2016,08,24,03,51,12.70
2016,08,24,03,52,12.70
2016,08,24,03,53,12.70
2016,08,24,03,54,12.70
2016,08,24,03,55,12.70
2016,08,24,03,56,12.70
2016,08,24,03,57,12.70
2016,08,24,03,58,12.70
2016,08,24,03,59,12.60
2016,08,24,04,00,12.60
2016,08,24,04,01,12.60
2016,08,24,04,02,12.60
2016,08,24,04,03,12.60
2016,08,24,04,04,12.60
2016,08,24,04,05,12.60
2016,08,24,04,06,12.60
2016,08,24,04,07,12.60
2016,08,24,04,08,12.60
2016,08,24,04,09,12.60
2016,08,24,04,10,12.60
2016,08,24,04,11,12.60
2016,08,24,04,12,12.60
2016,08,24,04,13,12.50
2016,08,24,04,14,12.50
2016,08,24,04,15,12.50
2016,08,24,04,16,12.50
2016,08,24,04,17,12.50
2016,08,24,04,18,12.50
2016,08,24,04,19,12.50
2016,08,24,04,20,12.40
2016,08,24,04,21,12.40
2016,08,24,04,22,12.50
2016,08,24,04,23,12.50
2016,08,24,04,24,12.50
2016,08,24,04,25,12.50
2016,08,24,04,26,12.50
2016,08,24,04,27,12.50
2016,08,24,04,28,12.50
2016,08,24,04,29,12.50
2016,08,24,04,30,12.50
2016,08,24,04,31,12.50
2016,08,24,04,32,12.50
2016,08,24,04,33,12.50
2016,08,24,04,34,12.50
2016,08,24,04,35,12.50
2016,08,24,04,36,12.40
2016,08,24,04,37,12.40
2016,08,24,04,38,12.40
2016,08,24,04,39,12.30
2016,08,24,04,40,12.30
2016,08,24,04,41,12.30
2016,08,24,04,42,12.30
2016,08,24,04,43,12.30
2016,08,24,04,44,12.30
2016,08,24,04,45,12.30
2016,08,24,04,46,12.30
2016,08,24,04,47,12.30
2016,08,24,04,48,12.30
2016,08,24,04,49,12.30
2016,08,24,04,50,12.30
2016,08,24,04,51,12.30
2016,08,24,04,52,12.30
2016,08,24,04,53,12.30
2016,08,24,04,54,12.30
2016,08,24,04,55,12.30
2016,08,24,04,56,12.30
2016,08,24,04,57,12.30
2016,08,24,04,58,12.30
2016,08,24,04,59,12.30
2016,08,24,05,00,12.20
2016,08,24,05,01,12.20
2016,08,24,05,02,12.10
2016,08,24,05,03,12.10
2016,08,24,05,04,12.10
2016,08,24,05,05,12.10
2016,08,24,05,06,12.10
2016,08,24,05,07,12.00
2016,08,24,05,08,12.00
2016,08,24,05,09,12.00
2016,08,24,05,10,12.00
2016,08,24,05,11,12.00
2016,08,24,05,12,12.00
2016,08,24,05,13,12.00
2016,08,24,05,14,12.00
2016,08,24,05,15,12.00
2016,08,24,05,16,12.00
2016,08,24,05,17,11.90
2016,08,24,05,18,11.90
2016,08,24,05,19,11.90
2016,08,24,05,20,11.90
2016,08,24,05,21,11.90
2016,08,24,05,22,11.90
2016,08,24,05,23,11.90
2016,08,24,05,24,11.90
2016,08,24,05,25,11.90
2016,08,24,05,26,11.90
2016,08,24,05,27,11.90
2016,08,24,05,28,11.90
2016,08,24,05,29,11.90
2016,08,24,05,30,11.90
2016,08,24,05,31,11.90
2016,08,24,05,32,11.90
2016,08,24,05,33,11.90
2016,08,24,05,34,11.90
2016,08,24,05,35,11.90
2016,08,24,05,36,11.90
2016,08,24,05,37,11.90
2016,08,24,05,38,11.90
2016,08,24,05,39,11.90
2016,08,24,05,40,11.90
2016,08,24,05,41,11.90
2016,08,24,05,42,11.80
2016,08,24,05,43,11.80
2016,08,24,05,44,11.80
2016,08,24,05,45,11.80
2016,08,24,05,46,11.80
2016,08,24,05,47,11.80
2016,08,24,05,48,11.80
2016,08,24,05,49,11.80
2016,08,24,05,50,11.80
2016,08,24,05,51,11.80
2016,08,24,05,52,11.80
2016,08,24,05,53,11.70
2016,08,24,05,54,11.70
2016,08,24,05,55,11.70
2016,08,24,05,56,11.70
2016,08,24,05,57,11.70
2016,08,24,05,58,11.70
2016,08,24,05,59,11.70
2016,08,24,06,00,11.70
2016,08,24,06,01,11.70
2016,08,24,06,02,11.70
2016,08,24,06,03,11.60
2016,08,24,06,04,11.60
2016,08,24,06,05,11.60
2016,08,24,06,06,11.60
2016,08,24,06,07,11.60
2016,08,24,06,08,11.60
2016,08,24,06,09,11.60
2016,08,24,06,10,11.60
2016,08,24,06,11,11.60
2016,08,24,06,12,11.60
2016,08,24,06,13,11.60
2016,08,24,06,14,11.60
2016,08,24,06,15,11.60
2016,08,24,06,16,11.70
2016,08,24,06,17,11.70
2016,08,24,06,18,11.70
2016,08,24,06,19,11.70
2016,08,24,06,20,11.70
2016,08,24,06,21,11.60
2016,08,24,06,22,11.60
2016,08,24,06,23,11.60
2016,08,24,06,24,11.60
2016,08,24,06,25,11.60
2016,08,24,06,26,11.60
2016,08,24,06,27,11.50
2016,08,24,06,28,11.40
2016,08,24,06,29,11.40
2016,08,24,06,30,11.40
2016,08,24,06,31,11.40
2016,08,24,06,32,11.40
2016,08,24,06,33,11.40
2016,08,24,06,34,11.50
2016,08,24,06,35,11.60
2016,08,24,06,36,11.60
2016,08,24,06,37,11.60
2016,08,24,06,38,11.60
2016,08,24,06,39,11.60
2016,08,24,06,40,11.60
2016,08,24,06,41,11.60
2016,08,24,06,42,11.60
2016,08,24,06,43,11.60
2016,08,24,06,44,11.50
2016,08,24,06,45,11.40
2016,08,24,06,46,11.40
2016,08,24,06,47,11.40
2016,08,24,06,48,11.50
2016,08,24,06,49,11.60
2016,08,24,06,50,11.60
2016,08,24,06,51,11.60
2016,08,24,06,52,11.60
2016,08,24,06,53,11.60
2016,08,24,06,54,11.60
2016,08,24,06,55,11.60
2016,08,24,06,56,11.70
2016,08,24,06,57,11.70
2016,08,24,06,58,11.70
2016,08,24,06,59,11.70
2016,08,24,07,00,11.80
2016,08,24,07,01,11.80
2016,08,24,07,02,11.80
2016,08,24,07,03,11.80
2016,08,24,07,04,11.90
2016,08,24,07,05,12.00
2016,08,24,07,06,12.00
2016,08,24,07,07,12.00
2016,08,24,07,08,12.10
2016,08,24,07,09,12.10
2016,08,24,07,10,12.10
2016,08,24,07,11,12.20
2016,08,24,07,12,12.20
2016,08,24,07,13,12.20
2016,08,24,07,14,12.30
2016,08,24,07,15,12.30
2016,08,24,07,16,12.30
2016,08,24,07,17,12.40
2016,08,24,07,18,12.40
2016,08,24,07,19,12.50
2016,08,24,07,20,12.50
2016,08,24,07,21,12.60
2016,08,24,07,22,12.70
2016,08,24,07,23,12.80
2016,08,24,07,24,12.90
2016,08,24,07,25,13.00
2016,08,24,07,26,13.10
2016,08,24,07,27,13.20
2016,08,24,07,28,13.30
2016,08,24,07,29,13.40
2016,08,24,07,30,13.50
2016,08,24,07,31,13.60
2016,08,24,07,32,13.70
2016,08,24,07,33,13.80
2016,08,24,07,34,13.90
2016,08,24,07,35,13.90
2016,08,24,07,36,13.90
2016,08,24,07,37,14.00
2016,08,24,07,38,14.00
2016,08,24,07,39,14.00
2016,08,24,07,40,14.10
2016,08,24,07,41,14.20
2016,08,24,07,42,14.30
2016,08,24,07,43,14.50
2016,08,24,07,44,14.60
2016,08,24,07,45,14.70
2016,08,24,07,46,14.80
2016,08,24,07,47,14.90
2016,08,24,07,48,15.00
2016,08,24,07,49,15.10
2016,08,24,07,50,15.20
2016,08,24,07,51,15.30
2016,08,24,07,52,15.30
2016,08,24,07,53,15.40
2016,08,24,07,54,15.50
2016,08,24,07,55,15.60
2016,08,24,07,56,15.70
2016,08,24,07,57,15.80
2016,08,24,07,58,16.00
2016,08,24,07,59,16.10
2016,08,24,08,00,16.20
2016,08,24,08,01,16.30
2016,08,24,08,02,16.40
2016,08,24,08,03,16.60
2016,08,24,08,04,16.70
2016,08,24,08,05,16.80
2016,08,24,08,06,16.90
2016,08,24,08,07,17.00
2016,08,24,08,08,17.00
2016,08,24,08,09,17.10
2016,08,24,08,10,17.20
2016,08,24,08,11,17.30
2016,08,24,08,12,17.40
2016,08,24,08,13,17.50
2016,08,24,08,14,17.60
2016,08,24,08,15,17.70
2016,08,24,08,16,17.80
2016,08,24,08,17,17.90
2016,08,24,08,18,18.00
2016,08,24,08,19,18.10
2016,08,24,08,20,18.10
2016,08,24,08,21,18.20
2016,08,24,08,22,18.30
2016,08,24,08,23,18.40
2016,08,24,08,24,18.50
2016,08,24,08,25,18.60
2016,08,24,08,26,18.80
2016,08,24,08,27,18.90
2016,08,24,08,28,19.00
2016,08,24,08,29,19.10
2016,08,24,08,30,19.10
2016,08,24,08,31,19.20
2016,08,24,08,32,19.30
2016,08,24,08,33,19.30
2016,08,24,08,34,19.30
2016,08,24,08,35,19.40
2016,08,24,08,36,19.50
2016,08,24,08,37,19.50
2016,08,24,08,38,19.60
2016,08,24,08,39,19.70
2016,08,24,08,40,19.70
2016,08,24,08,41,19.80
2016,08,24,08,42,19.80
2016,08,24,08,43,19.90
2016,08,24,08,44,19.90
2016,08,24,08,45,20.10
2016,08,24,08,46,20.20
2016,08,24,08,47,20.20
2016,08,24,08,48,20.40
2016,08,24,08,49,20.40
2016,08,24,08,50,20.50
2016,08,24,08,51,20.50
2016,08,24,08,52,20.50
2016,08,24,08,53,20.50
2016,08,24,08,54,20.50
2016,08,24,08,55,20.50
2016,08,24,08,56,20.60
2016,08,24,08,57,20.60
2016,08,24,08,58,20.70
2016,08,24,08,59,20.80
2016,08,24,09,00,20.80
2016,08,24,09,01,20.80
2016,08,24,09,02,20.90
2016,08,24,09,03,21.00
2016,08,24,09,04,21.00
2016,08,24,09,05,21.10
2016,08,24,09,06,21.30
2016,08,24,09,07,21.30
2016,08,24,09,08,21.30
2016,08,24,09,09,21.30
2016,08,24,09,10,21.30
2016,08,24,09,11,21.30
2016,08,24,09,12,21.30
2016,08,24,09,13,21.30
2016,08,24,09,14,21.30
2016,08,24,09,15,21.30
2016,08,24,09,16,21.40
2016,08,24,09,17,21.50
2016,08,24,09,18,21.60
2016,08,24,09,19,21.60
2016,08,24,09,20,21.80
2016,08,24,09,21,21.90
2016,08,24,09,22,21.90
2016,08,24,09,23,22.00
2016,08,24,09,24,22.00
2016,08,24,09,25,22.10
2016,08,24,09,26,22.20
2016,08,24,09,27,22.30
2016,08,24,09,28,22.30
2016,08,24,09,29,22.30
2016,08,24,09,30,22.40
2016,08,24,09,31,22.40
2016,08,24,09,32,22.40
2016,08,24,09,33,22.30
2016,08,24,09,34,22.30
2016,08,24,09,35,22.40
2016,08,24,09,36,22.40
2016,08,24,09,37,22.40
2016,08,24,09,38,22.40
2016,08,24,09,39,22.30
2016,08,24,09,40,22.30
2016,08,24,09,41,22.30
2016,08,24,09,42,22.30
2016,08,24,09,43,22.40
2016,08,24,09,44,22.50
2016,08,24,09,45,22.50
2016,08,24,09,46,22.60
2016,08,24,09,47,22.70
2016,08,24,09,48,22.80
2016,08,24,09,49,22.80
2016,08,24,09,50,22.90
2016,08,24,09,51,22.90
2016,08,24,09,52,23.00
2016,08,24,09,53,23.10
2016,08,24,09,54,23.20
2016,08,24,09,55,23.20
2016,08,24,09,56,23.20
2016,08,24,09,57,23.30
2016,08,24,09,58,23.30
2016,08,24,09,59,23.30
2016,08,24,10,00,23.30
2016,08,24,10,01,23.30
2016,08,24,10,02,23.30
2016,08,24,10,03,23.30
2016,08,24,10,04,23.20
2016,08,24,10,05,23.10
2016,08,24,10,06,23.10
2016,08,24,10,07,23.10
2016,08,24,10,08,23.10
2016,08,24,10,09,23.10
2016,08,24,10,10,23.20
2016,08,24,10,11,23.20
2016,08,24,10,12,23.30
2016,08,24,10,13,23.30
2016,08,24,10,14,23.30
2016,08,24,10,15,23.30
2016,08,24,10,16,23.30
2016,08,24,10,17,23.30
2016,08,24,10,18,23.20
2016,08,24,10,19,23.10
2016,08,24,10,20,23.20
2016,08,24,10,21,23.10
2016,08,24,10,22,23.00
2016,08,24,10,23,22.90
2016,08,24,10,24,22.90
2016,08,24,10,25,22.90
2016,08,24,10,26,22.90
2016,08,24,10,27,23.10
2016,08,24,10,28,23.10
2016,08,24,10,29,23.30
2016,08,24,10,30,23.40
2016,08,24,10,31,23.60
2016,08,24,10,32,23.70
2016,08,24,10,33,23.60
2016,08,24,10,34,23.60
2016,08,24,10,35,23.60
2016,08,24,10,36,23.60
2016,08,24,10,37,23.70
2016,08,24,10,38,23.70
2016,08,24,10,39,23.80
2016,08,24,10,40,23.80
2016,08,24,10,41,23.80
2016,08,24,10,42,23.80
2016,08,24,10,43,23.90
2016,08,24,10,44,23.90
2016,08,24,10,45,24.00
2016,08,24,10,46,24.10
2016,08,24,10,47,24.10
2016,08,24,10,48,24.10
2016,08,24,10,49,24.10
2016,08,24,10,50,24.20
2016,08,24,10,51,24.30
2016,08,24,10,52,24.40
2016,08,24,10,53,24.50
2016,08,24,10,54,24.70
2016,08,24,10,55,24.70
2016,08,24,10,56,24.80
2016,08,24,10,57,24.70
2016,08,24,10,58,24.60
2016,08,24,10,59,24.60
2016,08,24,11,00,24.70
2016,08,24,11,01,24.80
2016,08,24,11,02,24.80
2016,08,24,11,03,24.90
2016,08,24,11,04,24.90
2016,08,24,11,05,24.90
2016,08,24,11,06,24.90
2016,08,24,11,07,24.90
2016,08,24,11,08,24.80
2016,08,24,11,09,24.80
2016,08,24,11,10,24.80
2016,08,24,11,11,24.70
2016,08,24,11,12,24.70
2016,08,24,11,13,24.70
2016,08,24,11,14,24.60
2016,08,24,11,15,24.60
2016,08,24,11,16,24.60
2016,08,24,11,17,24.60
2016,08,24,11,18,24.70
2016,08,24,11,19,24.60
2016,08,24,11,20,24.60
2016,08,24,11,21,24.50
2016,08,24,11,22,24.50
2016,08,24,11,23,24.50
2016,08,24,11,24,24.50
2016,08,24,11,25,24.40
2016,08,24,11,26,24.40
2016,08,24,11,27,24.40
2016,08,24,11,28,24.30
2016,08,24,11,29,24.30
2016,08,24,11,30,24.30
2016,08,24,11,31,24.40
2016,08,24,11,32,24.40
2016,08,24,11,33,24.50
2016,08,24,11,34,24.60
2016,08,24,11,35,24.70
2016,08,24,11,36,24.70
2016,08,24,11,37,24.70
2016,08,24,11,38,24.70
2016,08,24,11,39,24.70
2016,08,24,11,40,24.80
2016,08,24,11,41,24.80
2016,08,24,11,42,24.90
2016,08,24,11,43,24.90
2016,08,24,11,44,25.10
2016,08,24,11,45,25.20
2016,08,24,11,46,25.30
2016,08,24,11,47,25.30
2016,08,24,11,48,25.30
2016,08,24,11,49,25.40
2016,08,24,11,50,25.40
2016,08,24,11,51,25.40
2016,08,24,11,52,25.40
2016,08,24,11,53,25.30
2016,08,24,11,54,25.30
2016,08,24,11,55,25.40
2016,08,24,11,56,25.60
2016,08,24,11,57,25.70
2016,08,24,11,58,25.80
2016,08,24,11,59,25.80
2016,08,24,12,00,25.80
2016,08,24,12,01,25.80
2016,08,24,12,02,25.80
2016,08,24,12,03,25.80
2016,08,24,12,04,25.80
2016,08,24,12,05,25.70
2016,08,24,12,06,25.60
2016,08,24,12,07,25.60
2016,08,24,12,08,25.60
2016,08,24,12,09,25.60
2016,08,24,12,10,25.60
2016,08,24,12,11,25.60
2016,08,24,12,12,25.60
2016,08,24,12,13,25.60
2016,08,24,12,14,25.60
2016,08,24,12,15,25.60
2016,08,24,12,16,25.60
2016,08,24,12,17,25.50
2016,08,24,12,18,25.50
2016,08,24,12,19,25.50
2016,08,24,12,20,25.60
2016,08,24,12,21,25.70
2016,08,24,12,22,25.70
2016,08,24,12,23,25.60
2016,08,24,12,24,25.60
2016,08,24,12,25,25.60
2016,08,24,12,26,25.60
2016,08,24,12,27,25.70
2016,08,24,12,28,25.70
2016,08,24,12,29,25.70
2016,08,24,12,30,25.70
2016,08,24,12,31,25.70
2016,08,24,12,32,25.80
2016,08,24,12,33,25.80
2016,08,24,12,34,25.80
2016,08,24,12,35,25.80
2016,08,24,12,36,25.80
2016,08,24,12,37,25.90
2016,08,24,12,38,26.00
2016,08,24,12,39,26.10
2016,08,24,12,40,26.10
2016,08,24,12,41,26.00
2016,08,24,12,42,25.90
2016,08,24,12,43,25.80
2016,08,24,12,44,25.90
2016,08,24,12,45,25.90
2016,08,24,12,46,26.00
2016,08,24,12,47,26.20
2016,08,24,12,48,26.30
2016,08,24,12,49,26.30
2016,08,24,12,50,26.20
2016,08,24,12,51,26.20
2016,08,24,12,52,26.20
2016,08,24,12,53,26.20
2016,08,24,12,54,26.10
2016,08,24,12,55,26.00
2016,08,24,12,56,25.90
2016,08,24,12,57,25.90
2016,08,24,12,58,25.90
2016,08,24,12,59,25.90
2016,08,24,13,00,25.90
2016,08,24,13,01,26.00
2016,08,24,13,02,26.00
2016,08,24,13,03,26.00
2016,08,24,13,04,26.00
2016,08,24,13,05,26.00
2016,08,24,13,06,26.00
2016,08,24,13,07,26.10
2016,08,24,13,08,26.00
2016,08,24,13,09,26.00
2016,08,24,13,10,26.00
2016,08,24,13,11,26.10
2016,08,24,13,12,26.20
2016,08,24,13,13,26.30
2016,08,24,13,14,26.40
2016,08,24,13,15,26.60
2016,08,24,13,16,26.70
2016,08,24,13,17,26.80
2016,08,24,13,18,26.80
2016,08,24,13,19,26.70
2016,08,24,13,20,26.60
2016,08,24,13,21,26.60
2016,08,24,13,22,26.60
2016,08,24,13,23,26.60
2016,08,24,13,24,26.70
2016,08,24,13,25,26.80
2016,08,24,13,26,26.80
2016,08,24,13,27,26.80
2016,08,24,13,28,26.90
2016,08,24,13,29,26.90
2016,08,24,13,30,26.90
2016,08,24,13,31,26.90
2016,08,24,13,32,26.90
2016,08,24,13,33,26.80
2016,08,24,13,34,26.80
2016,08,24,13,35,26.80
2016,08,24,13,36,26.80
2016,08,24,13,37,26.80
2016,08,24,13,38,26.80
2016,08,24,13,39,26.80
2016,08,24,13,40,26.80
2016,08,24,13,41,26.70
2016,08,24,13,42,26.60
2016,08,24,13,43,26.60
2016,08,24,13,44,26.60
2016,08,24,13,45,26.60
2016,08,24,13,46,26.70
2016,08,24,13,47,26.80
2016,08,24,13,48,26.80
2016,08,24,13,49,26.90
2016,08,24,13,50,27.00
2016,08,24,13,51,27.10
2016,08,24,13,52,27.20
2016,08,24,13,53,27.20
2016,08,24,13,54,27.30
2016,08,24,13,55,27.30
2016,08,24,13,56,27.30
2016,08,24,13,57,27.30
2016,08,24,13,58,27.30
2016,08,24,13,59,27.30
2016,08,24,14,00,27.30
2016,08,24,14,01,27.30
2016,08,24,14,02,27.30
2016,08,24,14,03,27.30
2016,08,24,14,04,27.30
2016,08,24,14,05,27.30
2016,08,24,14,06,27.30
2016,08,24,14,07,27.10
2016,08,24,14,08,27.00
2016,08,24,14,09,26.90
2016,08,24,14,10,26.80
2016,08,24,14,11,26.80
2016,08,24,14,12,26.70
2016,08,24,14,13,26.80
2016,08,24,14,14,26.80
2016,08,24,14,15,26.90
2016,08,24,14,16,27.00
2016,08,24,14,17,27.10
2016,08,24,14,18,27.10
2016,08,24,14,19,27.20
2016,08,24,14,20,27.20
2016,08,24,14,21,27.20
2016,08,24,14,22,27.20
2016,08,24,14,23,27.20
2016,08,24,14,24,27.30
2016,08,24,14,25,27.30
2016,08,24,14,26,27.40
2016,08,24,14,27,27.60
2016,08,24,14,28,27.70
2016,08,24,14,29,27.70
2016,08,24,14,30,27.70
2016,08,24,14,31,27.70
2016,08,24,14,32,27.70
2016,08,24,14,33,27.90
2016,08,24,14,34,27.90
2016,08,24,14,35,28.00
2016,08,24,14,36,28.00
2016,08,24,14,37,28.00
2016,08,24,14,38,28.00
2016,08,24,14,39,28.00
2016,08,24,14,40,28.00
2016,08,24,14,41,28.00
2016,08,24,14,42,28.00
2016,08,24,14,43,27.90
2016,08,24,14,44,27.80
2016,08,24,14,45,27.60
2016,08,24,14,46,27.50
2016,08,24,14,47,27.40
2016,08,24,14,48,27.40
2016,08,24,14,49,27.50
2016,08,24,14,50,27.60
2016,08,24,14,51,27.60
2016,08,24,14,52,27.70
2016,08,24,14,53,27.80
2016,08,24,14,54,27.80
2016,08,24,14,55,27.80
2016,08,24,14,56,27.70
2016,08,24,14,57,27.70
2016,08,24,14,58,27.70
2016,08,24,14,59,27.80
2016,08,24,15,00,27.80
2016,08,24,15,01,27.90
2016,08,24,15,02,28.00
2016,08,24,15,03,28.00
2016,08,24,15,04,28.10
2016,08,24,15,05,28.10
2016,08,24,15,06,28.10
2016,08,24,15,07,28.10
2016,08,24,15,08,28.00
2016,08,24,15,09,28.00
2016,08,24,15,10,28.00
2016,08,24,15,11,28.00
2016,08,24,15,12,28.00
2016,08,24,15,13,28.00
2016,08,24,15,14,28.00
2016,08,24,15,15,28.00
2016,08,24,15,16,28.10
2016,08,24,15,17,28.20
2016,08,24,15,18,28.40
2016,08,24,15,19,28.50
2016,08,24,15,20,28.60
2016,08,24,15,21,28.60
2016,08,24,15,22,28.50
2016,08,24,15,23,28.40
2016,08,24,15,24,28.30
2016,08,24,15,25,28.40
2016,08,24,15,26,28.40
2016,08,24,15,27,28.40
2016,08,24,15,28,28.50
2016,08,24,15,29,28.60
2016,08,24,15,30,28.80
2016,08,24,15,31,28.90
2016,08,24,15,32,28.90
2016,08,24,15,33,28.90
2016,08,24,15,34,28.90
2016,08,24,15,35,28.80
2016,08,24,15,36,28.80
2016,08,24,15,37,28.80
2016,08,24,15,38,28.90
2016,08,24,15,39,28.90
2016,08,24,15,40,28.90
2016,08,24,15,41,29.00
2016,08,24,15,42,29.10
2016,08,24,15,43,29.20
2016,08,24,15,44,29.30
2016,08,24,15,45,29.30
2016,08,24,15,46,29.20
2016,08,24,15,47,29.20
2016,08,24,15,48,29.20
2016,08,24,15,49,29.20
2016,08,24,15,50,29.20
2016,08,24,15,51,29.20
2016,08,24,15,52,29.20
2016,08,24,15,53,29.20
2016,08,24,15,54,29.10
2016,08,24,15,55,29.10
2016,08,24,15,56,29.20
2016,08,24,15,57,29.20
2016,08,24,15,58,29.30
2016,08,24,15,59,29.30
2016,08,24,16,00,29.30
2016,08,24,16,01,29.30
2016,08,24,16,02,29.30
2016,08,24,16,03,29.30
2016,08,24,16,04,29.30
2016,08,24,16,05,29.30
2016,08,24,16,06,29.30
2016,08,24,16,07,29.20
2016,08,24,16,08,29.20
2016,08,24,16,09,29.20
2016,08,24,16,10,29.10
2016,08,24,16,11,29.10
2016,08,24,16,12,29.10
2016,08,24,16,13,29.10
2016,08,24,16,14,29.10
2016,08,24,16,15,29.10
2016,08,24,16,16,29.10
2016,08,24,16,17,29.20
2016,08,24,16,18,29.20
2016,08,24,16,19,29.10
2016,08,24,16,20,29.20
2016,08,24,16,21,29.20
2016,08,24,16,22,29.20
2016,08,24,16,23,29.20
2016,08,24,16,24,29.30
2016,08,24,16,25,29.30
2016,08,24,16,26,29.30
2016,08,24,16,27,29.40
2016,08,24,16,28,29.40
2016,08,24,16,29,29.40
2016,08,24,16,30,29.50
2016,08,24,16,31,29.50
2016,08,24,16,32,29.50
2016,08,24,16,33,29.50
2016,08,24,16,34,29.50
2016,08,24,16,35,29.50
2016,08,24,16,36,29.50
2016,08,24,16,37,29.50
2016,08,24,16,38,29.50
2016,08,24,16,39,29.50
2016,08,24,16,40,29.60
2016,08,24,16,41,29.60
2016,08,24,16,42,29.60
2016,08,24,16,43,29.50
2016,08,24,16,44,29.50
2016,08,24,16,45,29.50
2016,08,24,16,46,29.40
2016,08,24,16,47,29.40
2016,08,24,16,48,29.40
2016,08,24,16,49,29.50
2016,08,24,16,50,29.50
2016,08,24,16,51,29.50
2016,08,24,16,52,29.50
2016,08,24,16,53,29.60
2016,08,24,16,54,29.70
2016,08,24,16,55,29.70
2016,08,24,16,56,29.70
2016,08,24,16,57,29.70
2016,08,24,16,58,29.80
2016,08,24,16,59,29.80
2016,08,24,17,00,29.80
2016,08,24,17,01,29.80
2016,08,24,17,02,29.70
2016,08,24,17,03,29.70
2016,08,24,17,04,29.60
2016,08,24,17,05,29.60
2016,08,24,17,06,29.50
2016,08,24,17,07,29.50
2016,08,24,17,08,29.50
2016,08,24,17,09,29.60
2016,08,24,17,10,29.60
2016,08,24,17,11,29.70
2016,08,24,17,12,29.70
2016,08,24,17,13,29.70
2016,08,24,17,14,29.70
2016,08,24,17,15,29.70
2016,08,24,17,16,29.70
2016,08,24,17,17,29.70
2016,08,24,17,18,29.80
2016,08,24,17,19,29.80